Year,Month,Day,Hour,Minute,Value (Times are PST for barometer in hPa)
2021,10,25,00,00,983.00
2021,10,25,00,01,983.09
2021,10,25,00,02,983.10
2021,10,25,00,03,983.07
2021,10,25,00,04,983.17
2021,10,25,00,05,982.88
2021,10,25,00,06,982.93
2021,10,25,00,07,983.00
2021,10,25,00,08,983.00
2021,10,25,00,09,983.10
2021,10,25,00,10,983.17
2021,10,25,00,11,983.07
2021,10,25,00,12,983.14
2021,10,25,00,13,983.17
2021,10,25,00,14,983.04
2021,10,25,00,15,983.07
2021,10,25,00,16,983.04
2021,10,25,00,17,983.00
2021,10,25,00,18,983.07
2021,10,25,00,19,982.97
2021,10,25,00,20,983.07
2021,10,25,00,21,983.10
2021,10,25,00,22,982.97
2021,10,25,00,23,983.04
2021,10,25,00,24,983.00
2021,10,25,00,25,982.87
2021,10,25,00,26,982.87
2021,10,25,00,27,982.83
2021,10,25,00,28,982.93
2021,10,25,00,29,982.93
2021,10,25,00,30,983.04
2021,10,25,00,31,983.10
2021,10,25,00,32,983.00
2021,10,25,00,33,983.07
2021,10,25,00,34,982.97
2021,10,25,00,35,982.90
2021,10,25,00,36,982.97
2021,10,25,00,37,982.93
2021,10,25,00,38,982.87
2021,10,25,00,39,983.00
2021,10,25,00,40,983.00
2021,10,25,00,41,983.07
2021,10,25,00,42,983.00
2021,10,25,00,43,983.20
2021,10,25,00,44,982.97
2021,10,25,00,45,983.10
2021,10,25,00,46,983.14
2021,10,25,00,47,983.17
2021,10,25,00,48,983.10
2021,10,25,00,49,983.17
2021,10,25,00,50,983.14
2021,10,25,00,51,983.20
2021,10,25,00,52,983.00
2021,10,25,00,53,983.04
2021,10,25,00,54,983.07
2021,10,25,00,55,983.07
2021,10,25,00,56,983.07
2021,10,25,00,57,983.10
2021,10,25,00,58,983.04
2021,10,25,00,59,983.07
2021,10,25,01,00,983.10
2021,10,25,01,01,983.04
2021,10,25,01,02,983.17
2021,10,25,01,03,983.10
2021,10,25,01,04,983.00
2021,10,25,01,05,982.97
2021,10,25,01,06,983.07
2021,10,25,01,07,983.00
2021,10,25,01,08,983.07
2021,10,25,01,09,983.07
2021,10,25,01,10,983.17
2021,10,25,01,11,983.20
2021,10,25,01,12,983.34
2021,10,25,01,13,983.31
2021,10,25,01,14,983.31
2021,10,25,01,15,983.27
2021,10,25,01,16,983.37
2021,10,25,01,17,983.24
2021,10,25,01,18,983.41
2021,10,25,01,19,983.37
2021,10,25,01,20,983.34
2021,10,25,01,21,983.41
2021,10,25,01,22,983.44
2021,10,25,01,23,983.54
2021,10,25,01,24,983.54
2021,10,25,01,25,983.61
2021,10,25,01,26,983.54
2021,10,25,01,27,983.58
2021,10,25,01,28,983.58
2021,10,25,01,29,983.58
2021,10,25,01,30,983.41
2021,10,25,01,31,983.44
2021,10,25,01,32,983.51
2021,10,25,01,33,983.34
2021,10,25,01,34,983.31
2021,10,25,01,35,983.37
2021,10,25,01,36,983.37
2021,10,25,01,37,983.37
2021,10,25,01,38,983.41
2021,10,25,01,39,983.17
2021,10,25,01,40,983.17
2021,10,25,01,41,983.34
2021,10,25,01,42,983.27
2021,10,25,01,43,983.41
2021,10,25,01,44,983.51
2021,10,25,01,45,983.37
2021,10,25,01,46,983.51
2021,10,25,01,47,983.44
2021,10,25,01,48,983.44
2021,10,25,01,49,983.44
2021,10,25,01,50,983.48
2021,10,25,01,51,983.31
2021,10,25,01,52,983.41
2021,10,25,01,53,983.48
2021,10,25,01,54,983.54
2021,10,25,01,55,983.61
2021,10,25,01,56,983.58
2021,10,25,01,57,983.61
2021,10,25,01,58,983.61
2021,10,25,01,59,983.54
2021,10,25,02,00,983.68
2021,10,25,02,01,983.75
2021,10,25,02,02,983.58
2021,10,25,02,03,983.54
2021,10,25,02,04,983.54
2021,10,25,02,05,983.61
2021,10,25,02,06,983.75
2021,10,25,02,07,983.61
2021,10,25,02,08,983.61
2021,10,25,02,09,983.54
2021,10,25,02,10,983.64
2021,10,25,02,11,983.64
2021,10,25,02,12,983.58
2021,10,25,02,13,983.64
2021,10,25,02,14,983.71
2021,10,25,02,15,983.81
2021,10,25,02,16,983.78
2021,10,25,02,17,983.78
2021,10,25,02,18,983.85
2021,10,25,02,19,983.85
2021,10,25,02,20,983.88
2021,10,25,02,21,983.78
2021,10,25,02,22,983.78
2021,10,25,02,23,983.88
2021,10,25,02,24,983.92
2021,10,25,02,25,983.88
2021,10,25,02,26,983.98
2021,10,25,02,27,983.88
2021,10,25,02,28,983.92
2021,10,25,02,29,983.81
2021,10,25,02,30,983.85
2021,10,25,02,31,983.88
2021,10,25,02,32,983.95
2021,10,25,02,33,983.88
2021,10,25,02,34,983.85
2021,10,25,02,35,983.92
2021,10,25,02,36,983.88
2021,10,25,02,37,984.02
2021,10,25,02,38,983.98
2021,10,25,02,39,983.88
2021,10,25,02,40,983.95
2021,10,25,02,41,983.88
2021,10,25,02,42,983.92
2021,10,25,02,43,983.95
2021,10,25,02,44,983.95
2021,10,25,02,45,983.95
2021,10,25,02,46,983.92
2021,10,25,02,47,983.88
2021,10,25,02,48,983.95
2021,10,25,02,49,983.95
2021,10,25,02,50,984.02
2021,10,25,02,51,984.02
2021,10,25,02,52,983.88
2021,10,25,02,53,983.92
2021,10,25,02,54,983.88
2021,10,25,02,55,983.92
2021,10,25,02,56,983.92
2021,10,25,02,57,984.02
2021,10,25,02,58,984.12
2021,10,25,02,59,984.12
2021,10,25,03,00,984.08
2021,10,25,03,01,984.19
2021,10,25,03,02,984.15
2021,10,25,03,03,984.15
2021,10,25,03,04,984.12
2021,10,25,03,05,984.12
2021,10,25,03,06,984.19
2021,10,25,03,07,984.15
2021,10,25,03,08,984.22
2021,10,25,03,09,984.19
2021,10,25,03,10,984.12
2021,10,25,03,11,984.19
2021,10,25,03,12,984.29
2021,10,25,03,13,984.19
2021,10,25,03,14,984.22
2021,10,25,03,15,984.29
2021,10,25,03,16,984.15
2021,10,25,03,17,984.28
2021,10,25,03,18,984.22
2021,10,25,03,19,984.36
2021,10,25,03,20,984.39
2021,10,25,03,21,984.36
2021,10,25,03,22,984.39
2021,10,25,03,23,984.23
2021,10,25,03,24,984.25
2021,10,25,03,25,984.32
2021,10,25,03,26,984.42
2021,10,25,03,27,984.42
2021,10,25,03,28,984.49
2021,10,25,03,29,984.49
2021,10,25,03,30,984.49
2021,10,25,03,31,984.56
2021,10,25,03,32,984.53
2021,10,25,03,33,984.59
2021,10,25,03,34,984.59
2021,10,25,03,35,984.69
2021,10,25,03,36,984.63
2021,10,25,03,37,984.66
2021,10,25,03,38,984.46
2021,10,25,03,39,984.49
2021,10,25,03,40,984.49
2021,10,25,03,41,984.49
2021,10,25,03,42,984.56
2021,10,25,03,43,984.49
2021,10,25,03,44,984.42
2021,10,25,03,45,984.39
2021,10,25,03,46,984.56
2021,10,25,03,47,984.42
2021,10,25,03,48,984.42
2021,10,25,03,49,984.49
2021,10,25,03,50,984.42
2021,10,25,03,51,984.49
2021,10,25,03,52,984.46
2021,10,25,03,53,984.42
2021,10,25,03,54,984.53
2021,10,25,03,55,984.59
2021,10,25,03,56,984.56
2021,10,25,03,57,984.46
2021,10,25,03,58,984.63
2021,10,25,03,59,984.66
2021,10,25,04,00,984.59
2021,10,25,04,01,984.59
2021,10,25,04,02,984.63
2021,10,25,04,03,984.53
2021,10,25,04,04,984.56
2021,10,25,04,05,984.42
2021,10,25,04,06,984.63
2021,10,25,04,07,984.63
2021,10,25,04,08,984.59
2021,10,25,04,09,984.53
2021,10,25,04,10,984.63
2021,10,25,04,11,984.66
2021,10,25,04,12,984.63
2021,10,25,04,13,984.56
2021,10,25,04,14,984.53
2021,10,25,04,15,984.59
2021,10,25,04,16,984.59
2021,10,25,04,17,984.69
2021,10,25,04,18,984.63
2021,10,25,04,19,984.56
2021,10,25,04,20,984.76
2021,10,25,04,21,984.76
2021,10,25,04,22,984.69
2021,10,25,04,23,984.80
2021,10,25,04,24,984.80
2021,10,25,04,25,984.69
2021,10,25,04,26,984.73
2021,10,25,04,27,984.80
2021,10,25,04,28,984.69
2021,10,25,04,29,984.76
2021,10,25,04,30,984.83
2021,10,25,04,31,984.76
2021,10,25,04,32,984.76
2021,10,25,04,33,984.80
2021,10,25,04,34,984.90
2021,10,25,04,35,984.93
2021,10,25,04,36,984.93
2021,10,25,04,37,984.97
2021,10,25,04,38,985.10
2021,10,25,04,39,984.97
2021,10,25,04,40,985.00
2021,10,25,04,41,984.97
2021,10,25,04,42,984.93
2021,10,25,04,43,985.00
2021,10,25,04,44,984.97
2021,10,25,04,45,985.03
2021,10,25,04,46,985.00
2021,10,25,04,47,984.90
2021,10,25,04,48,984.97
2021,10,25,04,49,985.03
2021,10,25,04,50,985.00
2021,10,25,04,51,984.93
2021,10,25,04,52,984.93
2021,10,25,04,53,984.90
2021,10,25,04,54,984.93
2021,10,25,04,55,984.97
2021,10,25,04,56,984.97
2021,10,25,04,57,985.10
2021,10,25,04,58,985.00
2021,10,25,04,59,985.10
2021,10,25,05,00,985.03
2021,10,25,05,01,985.10
2021,10,25,05,02,985.10
2021,10,25,05,03,985.10
2021,10,25,05,04,985.07
2021,10,25,05,05,985.17
2021,10,25,05,06,985.27
2021,10,25,05,07,985.24
2021,10,25,05,08,985.20
2021,10,25,05,09,985.27
2021,10,25,05,10,985.30
2021,10,25,05,11,985.30
2021,10,25,05,12,985.24
2021,10,25,05,13,985.20
2021,10,25,05,14,985.20
2021,10,25,05,15,985.20
2021,10,25,05,16,985.41
2021,10,25,05,17,985.30
2021,10,25,05,18,985.37
2021,10,25,05,19,985.34
2021,10,25,05,20,985.41
2021,10,25,05,21,985.34
2021,10,25,05,22,985.34
2021,10,25,05,23,985.41
2021,10,25,05,24,985.34
2021,10,25,05,25,985.41
2021,10,25,05,26,985.37
2021,10,25,05,27,985.41
2021,10,25,05,28,985.44
2021,10,25,05,29,985.44
2021,10,25,05,30,985.37
2021,10,25,05,31,985.37
2021,10,25,05,32,985.37
2021,10,25,05,33,985.41
2021,10,25,05,34,985.41
2021,10,25,05,35,985.27
2021,10,25,05,36,985.37
2021,10,25,05,37,985.37
2021,10,25,05,38,985.34
2021,10,25,05,39,985.41
2021,10,25,05,40,985.37
2021,10,25,05,41,985.34
2021,10,25,05,42,985.27
2021,10,25,05,43,985.17
2021,10,25,05,44,985.20
2021,10,25,05,45,985.17
2021,10,25,05,46,985.30
2021,10,25,05,47,985.20
2021,10,25,05,48,985.30
2021,10,25,05,49,985.34
2021,10,25,05,50,985.37
2021,10,25,05,51,985.34
2021,10,25,05,52,985.27
2021,10,25,05,53,985.20
2021,10,25,05,54,985.20
2021,10,25,05,55,985.20
2021,10,25,05,56,985.20
2021,10,25,05,57,985.03
2021,10,25,05,58,985.07
2021,10,25,05,59,985.00
2021,10,25,06,00,985.07
2021,10,25,06,01,985.00
2021,10,25,06,02,985.03
2021,10,25,06,03,985.13
2021,10,25,06,04,985.00
2021,10,25,06,05,985.03
2021,10,25,06,06,985.13
2021,10,25,06,07,985.10
2021,10,25,06,08,985.13
2021,10,25,06,09,985.10
2021,10,25,06,10,985.20
2021,10,25,06,11,985.20
2021,10,25,06,12,985.24
2021,10,25,06,13,985.34
2021,10,25,06,14,985.27
2021,10,25,06,15,985.41
2021,10,25,06,16,985.34
2021,10,25,06,17,985.41
2021,10,25,06,18,985.44
2021,10,25,06,19,985.44
2021,10,25,06,20,985.37
2021,10,25,06,21,985.44
2021,10,25,06,22,985.41
2021,10,25,06,23,985.41
2021,10,25,06,24,985.47
2021,10,25,06,25,985.54
2021,10,25,06,26,985.51
2021,10,25,06,27,985.54
2021,10,25,06,28,985.57
2021,10,25,06,29,985.64
2021,10,25,06,30,985.57
2021,10,25,06,31,985.67
2021,10,25,06,32,985.51
2021,10,25,06,33,985.68
2021,10,25,06,34,985.61
2021,10,25,06,35,985.57
2021,10,25,06,36,985.54
2021,10,25,06,37,985.61
2021,10,25,06,38,985.64
2021,10,25,06,39,985.71
2021,10,25,06,40,985.68
2021,10,25,06,41,985.74
2021,10,25,06,42,985.78
2021,10,25,06,43,985.68
2021,10,25,06,44,985.68
2021,10,25,06,45,985.71
2021,10,25,06,46,985.64
2021,10,25,06,47,985.74
2021,10,25,06,48,985.71
2021,10,25,06,49,985.64
2021,10,25,06,50,985.68
2021,10,25,06,51,985.68
2021,10,25,06,52,985.68
2021,10,25,06,53,985.57
2021,10,25,06,54,985.57
2021,10,25,06,55,985.64
2021,10,25,06,56,985.64
2021,10,25,06,57,985.71
2021,10,25,06,58,985.71
2021,10,25,06,59,985.74
2021,10,25,07,00,985.74
2021,10,25,07,01,985.81
2021,10,25,07,02,985.85
2021,10,25,07,03,985.85
2021,10,25,07,04,985.85
2021,10,25,07,05,985.81
2021,10,25,07,06,985.88
2021,10,25,07,07,985.91
2021,10,25,07,08,985.74
2021,10,25,07,09,985.85
2021,10,25,07,10,985.81
2021,10,25,07,11,985.78
2021,10,25,07,12,985.91
2021,10,25,07,13,985.88
2021,10,25,07,14,985.95
2021,10,25,07,15,985.85
2021,10,25,07,16,985.95
2021,10,25,07,17,985.89
2021,10,25,07,18,986.05
2021,10,25,07,19,986.05
2021,10,25,07,20,986.02
2021,10,25,07,21,986.08
2021,10,25,07,22,986.15
2021,10,25,07,23,986.25
2021,10,25,07,24,986.15
2021,10,25,07,25,986.22
2021,10,25,07,26,986.22
2021,10,25,07,27,986.18
2021,10,25,07,28,986.22
2021,10,25,07,29,986.25
2021,10,25,07,30,986.22
2021,10,25,07,31,986.22
2021,10,25,07,32,986.25
2021,10,25,07,33,986.12
2021,10,25,07,34,986.05
2021,10,25,07,35,986.12
2021,10,25,07,36,986.12
2021,10,25,07,37,986.25
2021,10,25,07,38,986.29
2021,10,25,07,39,986.29
2021,10,25,07,40,986.32
2021,10,25,07,41,986.39
2021,10,25,07,42,986.49
2021,10,25,07,43,986.35
2021,10,25,07,44,986.35
2021,10,25,07,45,986.39
2021,10,25,07,46,986.49
2021,10,25,07,47,986.46
2021,10,25,07,48,986.49
2021,10,25,07,49,986.42
2021,10,25,07,50,986.46
2021,10,25,07,51,986.52
2021,10,25,07,52,986.46
2021,10,25,07,53,986.49
2021,10,25,07,54,986.39
2021,10,25,07,55,986.46
2021,10,25,07,56,986.39
2021,10,25,07,57,986.52
2021,10,25,07,58,986.52
2021,10,25,07,59,986.62
2021,10,25,08,00,986.59
2021,10,25,08,01,986.62
2021,10,25,08,02,986.73
2021,10,25,08,03,986.59
2021,10,25,08,04,986.62
2021,10,25,08,05,986.59
2021,10,25,08,06,986.46
2021,10,25,08,07,986.59
2021,10,25,08,08,986.66
2021,10,25,08,09,986.69
2021,10,25,08,10,986.69
2021,10,25,08,11,986.69
2021,10,25,08,12,986.73
2021,10,25,08,13,986.62
2021,10,25,08,14,986.66
2021,10,25,08,15,986.69
2021,10,25,08,16,986.73
2021,10,25,08,17,986.73
2021,10,25,08,18,986.79
2021,10,25,08,19,986.76
2021,10,25,08,20,986.83
2021,10,25,08,21,986.86
2021,10,25,08,22,987.00
2021,10,25,08,23,986.96
2021,10,25,08,24,987.03
2021,10,25,08,25,986.93
2021,10,25,08,26,986.96
2021,10,25,08,27,987.00
2021,10,25,08,28,986.86
2021,10,25,08,29,986.76
2021,10,25,08,30,986.83
2021,10,25,08,31,986.90
2021,10,25,08,32,986.93
2021,10,25,08,33,987.06
2021,10,25,08,34,987.10
2021,10,25,08,35,987.13
2021,10,25,08,36,987.20
2021,10,25,08,37,987.10
2021,10,25,08,38,987.13
2021,10,25,08,39,987.06
2021,10,25,08,40,987.00
2021,10,25,08,41,986.86
2021,10,25,08,42,986.73
2021,10,25,08,43,986.73
2021,10,25,08,44,986.86
2021,10,25,08,45,986.93
2021,10,25,08,46,986.93
2021,10,25,08,47,986.79
2021,10,25,08,48,986.86
2021,10,25,08,49,986.83
2021,10,25,08,50,986.73
2021,10,25,08,51,986.66
2021,10,25,08,52,986.62
2021,10,25,08,53,986.66
2021,10,25,08,54,986.76
2021,10,25,08,55,986.79
2021,10,25,08,56,986.79
2021,10,25,08,57,986.79
2021,10,25,08,58,986.93
2021,10,25,08,59,986.93
2021,10,25,09,00,986.96
2021,10,25,09,01,986.93
2021,10,25,09,02,987.03
2021,10,25,09,03,987.06
2021,10,25,09,04,987.10
2021,10,25,09,05,987.13
2021,10,25,09,06,987.17
2021,10,25,09,07,987.17
2021,10,25,09,08,987.13
2021,10,25,09,09,987.17
2021,10,25,09,10,987.23
2021,10,25,09,11,987.20
2021,10,25,09,12,987.30
2021,10,25,09,13,987.37
2021,10,25,09,14,987.44
2021,10,25,09,15,987.57
2021,10,25,09,16,987.54
2021,10,25,09,17,987.44
2021,10,25,09,18,987.37
2021,10,25,09,19,987.44
2021,10,25,09,20,987.23
2021,10,25,09,21,987.27
2021,10,25,09,22,987.37
2021,10,25,09,23,987.37
2021,10,25,09,24,987.30
2021,10,25,09,25,987.23
2021,10,25,09,26,987.10
2021,10,25,09,27,986.96
2021,10,25,09,28,986.93
2021,10,25,09,29,986.90
2021,10,25,09,30,986.90
2021,10,25,09,31,986.79
2021,10,25,09,32,986.86
2021,10,25,09,33,986.96
2021,10,25,09,34,987.10
2021,10,25,09,35,987.13
2021,10,25,09,36,987.13
2021,10,25,09,37,987.13
2021,10,25,09,38,987.10
2021,10,25,09,39,987.17
2021,10,25,09,40,987.17
2021,10,25,09,41,987.17
2021,10,25,09,42,987.10
2021,10,25,09,43,987.10
2021,10,25,09,44,987.17
2021,10,25,09,45,987.23
2021,10,25,09,46,987.44
2021,10,25,09,47,987.44
2021,10,25,09,48,987.47
2021,10,25,09,49,987.51
2021,10,25,09,50,987.54
2021,10,25,09,51,987.47
2021,10,25,09,52,987.57
2021,10,25,09,53,987.61
2021,10,25,09,54,987.67
2021,10,25,09,55,987.64
2021,10,25,09,56,987.54
2021,10,25,09,57,987.54
2021,10,25,09,58,987.44
2021,10,25,09,59,987.54
2021,10,25,10,00,987.47
2021,10,25,10,01,987.54
2021,10,25,10,02,987.51
2021,10,25,10,03,987.30
2021,10,25,10,04,987.23
2021,10,25,10,05,987.30
2021,10,25,10,06,987.27
2021,10,25,10,07,987.20
2021,10,25,10,08,987.23
2021,10,25,10,09,987.20
2021,10,25,10,10,987.27
2021,10,25,10,11,987.10
2021,10,25,10,12,987.13
2021,10,25,10,13,987.03
2021,10,25,10,14,986.96
2021,10,25,10,15,986.93
2021,10,25,10,16,987.03
2021,10,25,10,17,987.03
2021,10,25,10,18,987.03
2021,10,25,10,19,987.13
2021,10,25,10,20,987.03
2021,10,25,10,21,987.27
2021,10,25,10,22,987.06
2021,10,25,10,23,987.10
2021,10,25,10,24,987.17
2021,10,25,10,25,987.17
2021,10,25,10,26,987.06
2021,10,25,10,27,987.17
2021,10,25,10,28,987.20
2021,10,25,10,29,987.17
2021,10,25,10,30,987.17
2021,10,25,10,31,987.13
2021,10,25,10,32,987.34
2021,10,25,10,33,987.27
2021,10,25,10,34,987.37
2021,10,25,10,35,987.44
2021,10,25,10,36,987.37
2021,10,25,10,37,987.27
2021,10,25,10,38,987.20
2021,10,25,10,39,987.10
2021,10,25,10,40,987.17
2021,10,25,10,41,987.20
2021,10,25,10,42,987.37
2021,10,25,10,43,987.30
2021,10,25,10,44,987.34
2021,10,25,10,45,987.23
2021,10,25,10,46,987.34
2021,10,25,10,47,987.13
2021,10,25,10,48,987.10
2021,10,25,10,49,987.06
2021,10,25,10,50,987.13
2021,10,25,10,51,987.03
2021,10,25,10,52,987.22
2021,10,25,10,53,987.27
2021,10,25,10,54,987.23
2021,10,25,10,55,987.23
2021,10,25,10,56,987.34
2021,10,25,10,57,987.23
2021,10,25,10,58,987.34
2021,10,25,10,59,987.27
2021,10,25,11,00,987.23
2021,10,25,11,01,987.34
2021,10,25,11,02,987.27
2021,10,25,11,03,987.34
2021,10,25,11,04,987.30
2021,10,25,11,05,987.40
2021,10,25,11,06,987.40
2021,10,25,11,07,987.51
2021,10,25,11,08,987.54
2021,10,25,11,09,987.44
2021,10,25,11,10,987.57
2021,10,25,11,11,987.54
2021,10,25,11,12,987.61
2021,10,25,11,13,987.57
2021,10,25,11,14,987.64
2021,10,25,11,15,987.57
2021,10,25,11,16,987.61
2021,10,25,11,17,987.57
2021,10,25,11,18,987.71
2021,10,25,11,19,987.71
2021,10,25,11,20,987.84
2021,10,25,11,21,987.88
2021,10,25,11,22,987.95
2021,10,25,11,23,987.95
2021,10,25,11,24,987.95
2021,10,25,11,25,988.05
2021,10,25,11,26,988.05
2021,10,25,11,27,988.05
2021,10,25,11,28,988.05
2021,10,25,11,29,988.08
2021,10,25,11,30,988.11
2021,10,25,11,31,988.11
2021,10,25,11,32,988.25
2021,10,25,11,33,988.22
2021,10,25,11,34,988.25
2021,10,25,11,35,988.22
2021,10,25,11,36,988.32
2021,10,25,11,37,988.39
2021,10,25,11,38,988.39
2021,10,25,11,39,988.42
2021,10,25,11,40,988.49
2021,10,25,11,41,988.35
2021,10,25,11,42,988.39
2021,10,25,11,43,988.35
2021,10,25,11,44,988.55
2021,10,25,11,45,988.45
2021,10,25,11,46,988.39
2021,10,25,11,47,988.49
2021,10,25,11,48,988.42
2021,10,25,11,49,988.45
2021,10,25,11,50,988.45
2021,10,25,11,51,988.49
2021,10,25,11,52,988.49
2021,10,25,11,53,988.49
2021,10,25,11,54,988.45
2021,10,25,11,55,988.49
2021,10,25,11,56,988.62
2021,10,25,11,57,988.66
2021,10,25,11,58,988.66
2021,10,25,11,59,988.72
2021,10,25,12,00,988.66
2021,10,25,12,01,988.72
2021,10,25,12,02,988.72
2021,10,25,12,03,988.66
2021,10,25,12,04,988.69
2021,10,25,12,05,988.72
2021,10,25,12,06,988.83
2021,10,25,12,07,988.79
2021,10,25,12,08,988.83
2021,10,25,12,09,988.79
2021,10,25,12,10,988.72
2021,10,25,12,11,988.76
2021,10,25,12,12,988.79
2021,10,25,12,13,988.86
2021,10,25,12,14,988.86
2021,10,25,12,15,988.79
2021,10,25,12,16,988.83
2021,10,25,12,17,988.79
2021,10,25,12,18,988.86
2021,10,25,12,19,988.83
2021,10,25,12,20,989.00
2021,10,25,12,21,988.93
2021,10,25,12,22,988.93
2021,10,25,12,23,988.83
2021,10,25,12,24,988.93
2021,10,25,12,25,989.03
2021,10,25,12,26,988.86
2021,10,25,12,27,988.83
2021,10,25,12,28,988.83
2021,10,25,12,29,988.83
2021,10,25,12,30,988.79
2021,10,25,12,31,988.86
2021,10,25,12,32,988.79
2021,10,25,12,33,988.89
2021,10,25,12,34,988.83
2021,10,25,12,35,988.89
2021,10,25,12,36,988.86
2021,10,25,12,37,988.86
2021,10,25,12,38,988.89
2021,10,25,12,39,988.86
2021,10,25,12,40,988.83
2021,10,25,12,41,988.79
2021,10,25,12,42,988.79
2021,10,25,12,43,988.86
2021,10,25,12,44,988.89
2021,10,25,12,45,988.83
2021,10,25,12,46,988.79
2021,10,25,12,47,988.86
2021,10,25,12,48,988.79
2021,10,25,12,49,988.93
2021,10,25,12,50,988.89
2021,10,25,12,51,988.89
2021,10,25,12,52,988.86
2021,10,25,12,53,988.83
2021,10,25,12,54,988.86
2021,10,25,12,55,988.89
2021,10,25,12,56,988.79
2021,10,25,12,57,988.83
2021,10,25,12,58,988.86
2021,10,25,12,59,988.83
2021,10,25,13,00,988.89
2021,10,25,13,01,988.93
2021,10,25,13,02,988.89
2021,10,25,13,03,988.86
2021,10,25,13,04,988.93
2021,10,25,13,05,988.86
2021,10,25,13,06,988.83
2021,10,25,13,07,988.89
2021,10,25,13,08,988.89
2021,10,25,13,09,988.86
2021,10,25,13,10,988.93
2021,10,25,13,11,988.93
2021,10,25,13,12,989.00
2021,10,25,13,13,989.00
2021,10,25,13,14,988.96
2021,10,25,13,15,989.00
2021,10,25,13,16,989.00
2021,10,25,13,17,989.00
2021,10,25,13,18,988.89
2021,10,25,13,19,989.00
2021,10,25,13,20,989.06
2021,10,25,13,21,989.00
2021,10,25,13,22,988.96
2021,10,25,13,23,989.03
2021,10,25,13,24,989.00
2021,10,25,13,25,989.00
2021,10,25,13,26,989.00
2021,10,25,13,27,989.06
2021,10,25,13,28,989.13
2021,10,25,13,29,989.13
2021,10,25,13,30,989.16
2021,10,25,13,31,989.16
2021,10,25,13,32,989.13
2021,10,25,13,33,989.13
2021,10,25,13,34,989.27
2021,10,25,13,35,989.23
2021,10,25,13,36,989.27
2021,10,25,13,37,989.30
2021,10,25,13,38,989.27
2021,10,25,13,39,989.27
2021,10,25,13,40,989.23
2021,10,25,13,41,989.23
2021,10,25,13,42,989.33
2021,10,25,13,43,989.23
2021,10,25,13,44,989.27
2021,10,25,13,45,989.27
2021,10,25,13,46,989.27
2021,10,25,13,47,989.23
2021,10,25,13,48,989.30
2021,10,25,13,49,989.30
2021,10,25,13,50,989.30
2021,10,25,13,51,989.33
2021,10,25,13,52,989.40
2021,10,25,13,53,989.40
2021,10,25,13,54,989.44
2021,10,25,13,55,989.44
2021,10,25,13,56,989.54
2021,10,25,13,57,989.57
2021,10,25,13,58,989.64
2021,10,25,13,59,989.64
2021,10,25,14,00,989.64
2021,10,25,14,01,989.64
2021,10,25,14,02,989.67
2021,10,25,14,03,989.71
2021,10,25,14,04,989.71
2021,10,25,14,05,989.77
2021,10,25,14,06,989.77
2021,10,25,14,07,989.84
2021,10,25,14,08,989.84
2021,10,25,14,09,989.77
2021,10,25,14,10,989.88
2021,10,25,14,11,989.84
2021,10,25,14,12,989.88
2021,10,25,14,13,989.81
2021,10,25,14,14,989.94
2021,10,25,14,15,989.94
2021,10,25,14,16,989.91
2021,10,25,14,17,989.88
2021,10,25,14,18,989.94
2021,10,25,14,19,989.84
2021,10,25,14,20,989.88
2021,10,25,14,21,989.91
2021,10,25,14,22,990.01
2021,10,25,14,23,990.08
2021,10,25,14,24,990.11
2021,10,25,14,25,990.15
2021,10,25,14,26,990.15
2021,10,25,14,27,990.15
2021,10,25,14,28,990.11
2021,10,25,14,29,990.15
2021,10,25,14,30,990.18
2021,10,25,14,31,990.18
2021,10,25,14,32,990.18
2021,10,25,14,33,990.21
2021,10,25,14,34,990.28
2021,10,25,14,35,990.28
2021,10,25,14,36,990.32
2021,10,25,14,37,990.38
2021,10,25,14,38,990.49
2021,10,25,14,39,990.59
2021,10,25,14,40,990.62
2021,10,25,14,41,990.78
2021,10,25,14,42,990.79
2021,10,25,14,43,990.96
2021,10,25,14,44,991.03
2021,10,25,14,45,991.09
2021,10,25,14,46,991.13
2021,10,25,14,47,991.16
2021,10,25,14,48,991.20
2021,10,25,14,49,991.23
2021,10,25,14,50,991.30
2021,10,25,14,51,991.30
2021,10,25,14,52,991.33
2021,10,25,14,53,991.30
2021,10,25,14,54,991.30
2021,10,25,14,55,991.37
2021,10,25,14,56,991.37
2021,10,25,14,57,991.37
2021,10,25,14,58,991.47
2021,10,25,14,59,991.43
2021,10,25,15,00,991.37
2021,10,25,15,01,991.37
2021,10,25,15,02,991.40
2021,10,25,15,03,991.43
2021,10,25,15,04,991.43
2021,10,25,15,05,991.47
2021,10,25,15,06,991.53
2021,10,25,15,07,991.50
2021,10,25,15,08,991.60
2021,10,25,15,09,991.60
2021,10,25,15,10,991.64
2021,10,25,15,11,991.57
2021,10,25,15,12,991.50
2021,10,25,15,13,991.47
2021,10,25,15,14,991.37
2021,10,25,15,15,991.37
2021,10,25,15,16,991.33
2021,10,25,15,17,991.33
2021,10,25,15,18,991.26
2021,10,25,15,19,991.30
2021,10,25,15,20,991.37
2021,10,25,15,21,991.37
2021,10,25,15,22,991.37
2021,10,25,15,23,991.37
2021,10,25,15,24,991.40
2021,10,25,15,25,991.40
2021,10,25,15,26,991.43
2021,10,25,15,27,991.47
2021,10,25,15,28,991.47
2021,10,25,15,29,991.47
2021,10,25,15,30,991.47
2021,10,25,15,31,991.57
2021,10,25,15,32,991.64
2021,10,25,15,33,991.67
2021,10,25,15,34,991.67
2021,10,25,15,35,991.67
2021,10,25,15,36,991.67
2021,10,25,15,37,991.67
2021,10,25,15,38,991.74
2021,10,25,15,39,991.74
2021,10,25,15,40,991.74
2021,10,25,15,41,991.77
2021,10,25,15,42,991.77
2021,10,25,15,43,991.77
2021,10,25,15,44,991.77
2021,10,25,15,45,991.81
2021,10,25,15,46,991.87
2021,10,25,15,47,991.91
2021,10,25,15,48,991.98
2021,10,25,15,49,991.98
2021,10,25,15,50,991.94
2021,10,25,15,51,991.91
2021,10,25,15,52,991.94
2021,10,25,15,53,991.91
2021,10,25,15,54,991.98
2021,10,25,15,55,992.04
2021,10,25,15,56,992.11
2021,10,25,15,57,992.11
2021,10,25,15,58,992.11
2021,10,25,15,59,992.11
2021,10,25,16,00,992.11
2021,10,25,16,01,992.18
2021,10,25,16,02,992.21
2021,10,25,16,03,992.14
2021,10,25,16,04,992.21
2021,10,25,16,05,992.31
2021,10,25,16,06,992.35
2021,10,25,16,07,992.35
2021,10,25,16,08,992.38
2021,10,25,16,09,992.48
2021,10,25,16,10,992.52
2021,10,25,16,11,992.52
2021,10,25,16,12,992.58
2021,10,25,16,13,992.69
2021,10,25,16,14,992.75
2021,10,25,16,15,992.82
2021,10,25,16,16,992.89
2021,10,25,16,17,992.86
2021,10,25,16,18,992.86
2021,10,25,16,19,992.86
2021,10,25,16,20,992.86
2021,10,25,16,21,992.86
2021,10,25,16,22,992.92
2021,10,25,16,23,992.92
2021,10,25,16,24,992.96
2021,10,25,16,25,992.99
2021,10,25,16,26,992.96
2021,10,25,16,27,993.03
2021,10,25,16,28,993.09
2021,10,25,16,29,993.16
2021,10,25,16,30,993.09
2021,10,25,16,31,993.13
2021,10,25,16,32,993.13
2021,10,25,16,33,993.16
2021,10,25,16,34,993.23
2021,10,25,16,35,993.19
2021,10,25,16,36,993.16